Regional Weather Roundup
Issued by NWS

Home | Current Version | Previous Version | Graphics & Text | Print | Product List | Glossary On
Versions: 1 2 3 4 5 6 7 8 9 10 11 12 13 14 15 16 17 18 19 20 21 22 23 24 25 26 27 28 29 30 31 32 33 34 35 36 37 38 39 40 41 42 43 44 45 46 47 48 49 50
000
ASUS45 KPSR 051210
RWRAZ

ARIZONA REGIONAL HOURLY WEATHER ROUNDUP
NATIONAL WEATHER SERVICE PHOENIX AZ
500 AM MST THU MAR 05 2015

NOTE: FAIR INDICATES FEW OR NO CLOUDS BELOW 12,000 FEET WITH NO
SIGNIFICANT WEATHER AND/OR OBSTRUCTIONS TO VISIBILITY.

AZZ001>003-036-051300-
NORTHWEST ARIZONA

CITY           SKY/WX    TMP DP  RH WIND       PRES   REMARKS
BULLHEAD CITY  CLEAR     54  27  35 N20       30.27R
KINGMAN        CLEAR     32  25  75 NE3       30.28R
6HR MIN TEMP:  32; 6HR MAX TEMP:  41;

$$

AZZ004>008-015-016-018-051300-
NORTH CENTRAL ARIZONA

CITY           SKY/WX    TMP DP  RH WIND       PRES   REMARKS
GRAND CANYON   PTCLDY     4   0  83 CALM      30.31S
6HR MIN TEMP:   4; 6HR MAX TEMP:  17;

PRESCOTT       CLEAR     24  15  68 SW3       30.28R
6HR MIN TEMP:  24; 6HR MAX TEMP:  35;

FLAGSTAFF      PTCLDY    13   8  81 NE7       30.29R WCI   3
6HR MIN TEMP:  12; 6HR MAX TEMP:  26;

PAYSON         CLEAR     34   9  35 NE6       30.27R WCI  29
PAGE           CLEAR     31  22  69 CALM      30.35R
6HR MIN TEMP:  31; 6HR MAX TEMP:  37;

$$

AZZ009>014-017-051300-
NORTHEAST ARIZONA

CITY           SKY/WX    TMP DP  RH WIND       PRES   REMARKS
WINSLOW        CLEAR     21  16  81 SW3       30.34R
6HR MIN TEMP:  21; 6HR MAX TEMP:  33;

SAINT JOHNS    CLEAR     21  16  81 S3        30.31R
6HR MIN TEMP:  17; 6HR MAX TEMP:  27;

WINDOW ROCK    CLEAR     17  12  80 S3        30.31R
6HR MIN TEMP:  16; 6HR MAX TEMP:  28;

SHOW LOW       CLEAR     18  12  79 CALM      30.31R
$$

AZZ023-051300-
GREATER PHOENIX AREA

CITY           SKY/WX    TMP DP  RH WIND       PRES   REMARKS
PHOENIX        PTCLDY    50  32  50 CALM      30.18S
6HR MIN TEMP:  47; 6HR MAX TEMP:  59;

BUCKEYE        CLEAR     45  37  76 N5        30.20R
LUKE AFB       CLEAR     44  36  71 NW2       30.19R
6HR MIN TEMP:  44; 6HR MAX TEMP:  55;

DEER VALLEY    CLEAR     47  24  40 CALM      30.19R
6HR MIN TEMP:  46; 6HR MAX TEMP:  55;

SCOTTSDALE     CLEAR     50  22  33 VRB3      30.20R
6HR MIN TEMP:  50; 6HR MAX TEMP:  58;

MESA-GATEWAY   CLEAR     46  30  53 CALM      30.21S
$$

AZZ027-028-051300-
SOUTHWEST MARICOPA COUNTY AND PINAL COUNTY

CITY           SKY/WX    TMP DP  RH WIND       PRES   REMARKS
CASA GRANDE    CLEAR     48  27  43 NE8       30.19R
6HR MIN TEMP:  43; 6HR MAX TEMP:  55;

GILA BEND      FAIR      44  40  86 SE5       30.19R
6HR MIN TEMP:  44; 6HR MAX TEMP:  51;

$$

AZZ503-504-507>509-051300-
SOUTHEAST ARIZONA

CITY           SKY/WX    TMP DP  RH WIND       PRES   REMARKS
TUCSON         CLEAR     41  35  79 SE3       30.20R
6HR MIN TEMP:  41; 6HR MAX TEMP:  51;

DAVIS-MONTHAN  CLEAR     40  34  78 SE6       30.18R
6HR MIN TEMP:  40; 6HR MAX TEMP:  46;

NOGALES        CLEAR     34  29  82 CALM      30.17S
6HR MIN TEMP:  33; 6HR MAX TEMP:  43;

SIERRA VISTA   CLEAR     37  30  75 SW3       30.20R
DOUGLAS        CLEAR     30  28  92 CALM      30.20S
6HR MIN TEMP:  30; 6HR MAX TEMP:  40;

SAFFORD        CLEAR     34  22  61 NE3       30.23R
6HR MIN TEMP:  34; 6HR MAX TEMP:  48;

$$

AZZ020-021-025-026-031-051300-
SOUTHWEST ARIZONA

CITY           SKY/WX    TMP DP  RH WIND       PRES   REMARKS
YUMA           CLEAR     53  30  41 N7        30.18S
6HR MIN TEMP:  52; 6HR MAX TEMP:  56;

$$

CAZ031-033-041-043-047-048-061-051300-
SOUTHERN CALIFORNIA

CITY           SKY/WX    TMP DP  RH WIND       PRES   REMARKS
DOWNTOWN L.A.  CLEAR     52  32  46 CALM      30.17S
6HR MIN TEMP:  52; 6HR MAX TEMP:  59;

L.A. AIRPORT   PTCLDY    51  34  52 NE5       30.18R
6HR MIN TEMP:  49; 6HR MAX TEMP:  58;

SAN DIEGO      PTCLDY    52  40  63 NW3       30.17S
6HR MIN TEMP:  52; 6HR MAX TEMP:  59;

BURBANK        CLEAR     46  29  51 CALM      30.18R
6HR MIN TEMP:  46; 6HR MAX TEMP:  54;

ONTARIO        MOCLDY    48  34  58 NE5       30.17S
6HR MIN TEMP:  43; 6HR MAX TEMP:  56;

RIVERSIDE      CLEAR     44  28  53 E5        30.19R
6HR MIN TEMP:  43; 6HR MAX TEMP:  56;

PALM SPRINGS   CLEAR     56  22  26 W6        30.23R
6HR MIN TEMP:  55; 6HR MAX TEMP:  61;

EL CENTRO NAS  CLEAR     43  35  73 SW8       30.19S
6HR MIN TEMP:  43; 6HR MAX TEMP:  55;

IMPERIAL       CLEAR     44  35  70 SW6       30.19R
6HR MIN TEMP:  43; 6HR MAX TEMP:  54;

BLYTHE         CLEAR     48  35  60 NE3       30.22R
6HR MIN TEMP:  47; 6HR MAX TEMP:  56;

$$

NVZ020-UTZ003-051300-
SOUTHERN NEVADA-UTAH

CITY           SKY/WX    TMP DP  RH WIND       PRES   REMARKS
LAS VEGAS      CLEAR     42  28  57 S9        30.28R
6HR MIN TEMP:  42; 6HR MAX TEMP:  52;

SALT LAKE CITY CLEAR     29  18  63 SE9       30.37S WCI  20
6HR MIN TEMP:  27; 6HR MAX TEMP:  30;

$$

NMZ009-TXZ055-051300-
NEW MEXICO-WEST TEXAS

CITY           SKY/WX    TMP DP  RH WIND       PRES   REMARKS
ALBUQUERQUE    CLEAR     24  18  77 N9        30.34R WCI  14
6HR MIN TEMP:  24; 6HR MAX TEMP:  36;

EL PASO        PTCLDY    32  22  66 E8        30.34R WCI  25
6HR MIN TEMP:  32; 6HR MAX TEMP:  39;

$$


........................KEY........................
SKY/WX - SKY CONDITION/WEATHER
TMP    - TEMPERATURE IN FAHRENHEIT
DP     - DEW POINT IN FAHRENHEIT
RH     - RELATIVE HUMIDITY IN PERCENT
WIND   - DIRECTION AND SPEED IN MILES PER HOUR (MPH)
VRB    - VARIABLE WIND DIRECTION
PRES   - MEAN SEA LEVEL PRESSURE IN INCHES OF MERCURY
         F - FALLING PRESSURE   R - RISING PRESSURE
         S - STEADY PRESSURE
VSB    - VISIBILITY IN MILES
HX     - HEAT INDEX IN FAHRENHEIT
WCI    - WIND CHILL INDEX IN FAHRENHEIT
TC     - TEMPERATURE IN CELSIUS WHICH IS ALSO KNOWN AS
         TEMPERATURE IN CENTIGRADE
AFB    - AIR FORCE BASE
         LUKE AFB IS LUKE AIR FORCE BASE
         DAVIS-MONTHAN IS DAVIS-MONTHAN AIR FORCE BASE
NAS    - NAVAL AIR STATION
         EL CENTRO NAS IS EL CENTRO NAVAL AIR STATION
N/A    - NOT AVAILABLE



USA.gov is the U.S. government's official web portal to all federal, state and local government web resources and services.